User: anonymous   Login
Location: Aytr�
(46.1357°N, 1.1145°W)
Time: 04:49:08
(UTC+00:00)
Language:

Meteor 2-12 Rocket - Orbit

View from above orbital plane
View from above orbital plane
View from above satellite
View from above satellite

Ground track
Ground track

The orbit data is extracted from the following two-line orbital elements,

1 15517U 85013B   21208.57768172  .00000029  00000-0  12457-4 0  9996
2 15517  82.5382 325.8630 0013629 298.5550  61.4238 13.84897906842857
Epoch (UTC): 27 July 2021 13:51:51
Eccentricity: 0.0013629
inclination: 82.5382°
perigee height: 936 km
apogee height: 956 km
right ascension of ascending node: 325.8630°
argument of perigee: 298.5550°
revolutions per day: 13.84897906
mean anomaly at epoch: 61.4238°
orbit number at epoch: 84285

The dashed part of the orbit path shows where the satellite is in the earth's shadow,  

DLR